Powrót do katalogu

STARLINK-36341

AktywnyŁącznośćVLEO
NORAD 67918·PAYLOAD·🇺🇸 United States

Wystrzelony Feb 22, 2026 z Vandenberg Space Force Base

Loading…

Następne Przeloty (najbliższe 24 godziny)

TLE

ŚwieżeSource: CelesTrak SupGP

Epoka: Sep 15, 2026, 04:08 UTC

1 67918C 26036Q   26258.17270833 -.00026842  00000+0 -97242-3 0  2580
2 67918  42.9990 255.6024 0001293 268.5160 182.5236 15.27584855    11

Śledź STARLINK-36341 w czasie rzeczywistym z AllMySat

Download on the App Store